weather.gov     
National Weather Service

Terminal Aerodrome Forecast
NWS Homepage
This page is being discontinued on March 12, 2014.
The same data is available at this site. Please update your bookmarks.
Thank you, and we apologize for the inconvenience.
Please send an email to SR-SRH.Webmaster@noaa.gov with any concerns.


Current Version
Previous Version:    01  02  03  04  05  06  07  08  09  10  11  12  13  14  15  16  17  18  19  20  21  22  23  24  25  
[Printable]
153
FTUS42 KMLB 211700
TAFSUA
TAF
KSUA 211727Z 2118/2218 10006KT 6SM -TSRA SCT020 BKN040CB
      TEMPO 2118/2120 VRB12G24KT 2SM +TSRA BKN020CB
     FM212000 14005KT P6SM VCSH SCT035 BKN100
     FM220200 00000KT P6SM VCSH SCT040 OVC150
     FM221400 32004KT P6SM FEW080 BKN250
     FM221700 03007KT P6SM FEW030 SCT060 BKN250=


U.S. Dept. of Commerce
NOAA National Weather Service
1325 East West Highway
Silver Spring, MD 20910
E-mail: w-nws.webmaster@noaa.gov
Page last modified: May 16, 2007
NATIONAL WEATHER SERVICE: for Safety, for Work, for Fun - FOR LIFE